This is the latest recevied weather packets stored in our database for station/object DELTON-WX. If no packets are shown the sender has not sent any weather packets the latest 10 day(s).
| Time | Temp. | Humidity | Pressure | Rain* | Wind** | Luminosity | Snow |
|---|---|---|---|---|---|---|---|
| 1777694476 | 0.56° C | 72% | 983.9 hPa | 0 mm | - | - | - |
| 1777693545 | 1.11° C | 69% | 983.3 hPa | 0 mm | - | - | - |
| 1777692665 | 1.11° C | 72% | 983 hPa | 0 mm | - | - | - |
| 1777691745 | 1.11° C | 72% | 983 hPa | 0 mm | - | - | - |
| 1777690875 | 1.11° C | 72% | 983 hPa | 0 mm | - | - | - |
| 1777689945 | 1.67° C | 67% | 982.4 hPa | 0 mm | - | - | - |
| 1777689063 | 1.67° C | 69% | 983.3 hPa | 0 mm | - | - | - |
| 1777688144 | 1.67° C | 69% | 983.3 hPa | 0 mm | - | - | - |
| 1777687270 | 1.67° C | 69% | 983.3 hPa | 0 mm | - | - | - |
| 1777686344 | 1.67° C | 65% | 983.6 hPa | 0 mm | - | - | - |
| 1777685461 | 2.22° C | 65% | 983.6 hPa | 0 mm | - | - | - |
| 1777684544 | 2.22° C | 65% | 983.6 hPa | 0 mm | - | - | - |
| 1777683668 | 2.78° C | 65% | 983.6 hPa | 0 mm | - | - | - |
| 1777682743 | 2.78° C | 57% | 984.1 hPa | 0 mm | - | - | - |
| 1777681862 | 3.33° C | 59% | 984.5 hPa | 0 mm | - | - | - |
| 1777680945 | 3.89° C | 59% | 984.5 hPa | 0 mm | - | - | - |
| 1777680082 | 4.44° C | 59% | 984.5 hPa | 0 mm | - | - | - |
| 1777679145 | 5° C | 60% | 982.7 hPa | 0 mm | - | - | - |
| 1777678259 | 5° C | 61% | 984 hPa | 0 mm | - | - | - |
| 1777677345 | 5.56° C | 61% | 984 hPa | 0 mm | - | - | - |
| 1777676467 | 5.56° C | 61% | 984 hPa | 0 mm | - | - | - |
| 1777675545 | 5.56° C | 58% | 982.7 hPa | 0 mm | - | - | - |
| 1777674664 | 6.11° C | 59% | 983.6 hPa | 0 mm | - | - | - |
| 1777673745 | 6.11° C | 59% | 983.7 hPa | 0 mm | - | - | - |
| 1777672874 | 6.67° C | 59% | 983.7 hPa | 0 mm | - | - | - |
* Rain latest hour (hover to see other rain measurements)
** Current wind speed in m/s (hover to see current wind gust speed)